Hourly Data Report for September 22, 2017

All times are specified in Local Standard Time (LST). Add 1 hour to adjust for Daylight Saving Time where and when it is observed.

KUGAARUK CLIMATE
NUNAVUT

68°32'15.060" N
89°47'47.020" W
15.80 m
2303094
71407
NBB

Download Data

Hourly Data (September 2017)
Hourly Data Report for September 22, 2017
Temp Definition
°C
Dew Point Temp Definition
°C
Rel Hum Definition
%
Wind Dir Definition
10's deg

Wind Spd Definition
km/h
Visibility Definition
km
Stn Press Definition
kPa
Hmdx Definition


Wind Chill Definition


Weather Definition


TIME
00:00 -1.5 -3.5 87 32 8   102.15   -5 LegendNANA
01:00 -2.2 -3.9 88 30 3   102.14   -3 LegendNANA
02:00 -2.3 -3.7 90 30 6   102.12   -5 LegendNANA
03:00 -1.9 -3.2 91 31 6   102.12   -4 LegendNANA
04:00 -2.5 -3.6 92 25 8   102.12   -6 LegendNANA
05:00 -1.0 -3.3 84 26 2   102.10   -2 LegendNANA
06:00 -0.9 -3.5 83 10 5   102.11   -3 LegendNANA
07:00 0.1 -2.8 81 2 8   102.10     LegendNANA
08:00 1.0 -3.9 70 32 6   102.08     LegendNANA
09:00 1.6 -5.1 61 33 6   102.09     LegendNANA
10:00 1.6 -4.1 66 32 6   102.07     LegendNANA
11:00 2.7 -4.8 58 34 10   102.07     LegendNANA
12:00 3.0 -4.3 59 35 7   102.06     LegendNANA
13:00 3.2 -5.3 54 34 10   102.06     LegendNANA
14:00 3.1 -5.4 54 34 13   102.07     LegendNANA
15:00 2.5 -5.0 58 2 13   102.08     LegendNANA
16:00 1.3 -5.2 62 4 9   102.09     LegendNANA
17:00 0.0 -4.5 72 7 5   102.10   -2 LegendNANA
18:00 -1.0 -4.2 79 13 2   102.10   -2 LegendNANA
19:00 -1.8 -5.2 77 18 2   102.09   -3 LegendNANA
20:00 -3.4 -6.1 81 0 1   102.06   -4 LegendNANA
21:00 -1.9 -3.9 86 17 2   102.06   -3 LegendNANA
22:00 -3.2 -5.2 86 2 1   102.08   -4 LegendNANA
23:00 -3.4 -4.8 90 25 4   102.09   -5 LegendNANA

Notes on Data Quality.

Legend

  • E = Estimated
  • M = Missing
  • NA = Not Available
  • ‡ = Partner data that is not subject to review by the National Climate Archives
Date modified: